SAUDISAT 5B (43833 NORAD) Tracking and Keplerian Element Data

This shows tracking and keplerian element data for the satellite.

Feedback or suggestion? Click here.




ElementValue
Catalog43833
NameSAUDISAT 5B
Epoch Orbit2516
Epoch Day143.15289168
Epoch Year2019
RAAN219.1536
Inclination97.6057
Eccentricity0.0016879
Argument of Perigee64.9174
Mean Anonmoly19.9535
Mean Motion15.08322658
Decay Rate6.97E-06
L11 43833U 18102C 19143.15289168 .00000697 00000-0 48897-4 0 9993
L22 43833 97.6057 219.1536 0016879 64.9174 19.9535 15.08322658 25162

Live tracking and technical data element details for SAUDISAT 5B (NORAD 43833). SAUDISAT 5B can be tracked NOW for your location showing map with azimuth and elevation plus other details from your city location.

Track the satellite on the map from your city or location and see movement details for azimuth, elevation, latitude, longitude, range, height, and movement on the map or in text.







IsCatalogInMostPopularTable: catalog: 43833, numindb: 63
Update: records affected: 1



GetName: 43833 SAUDISAT 5B

Hit Count: updated at: Thu, 23 May 2019 14:41:01 GMT